Home   Weather   Périgueux   Past weeks

Flag for France Past Weather in Périgueux, Aquitaine, France — Yesterday and Last 2 Weeks

Now
39 °F

Sunny.


Feels Like: 30 °F
Forecast: 23 / 36 °F
Wind: 16 mph from North

Location: Bergerac Airport

Current Time: Jan 17, 2017 at 4:22:03 pm

Latest Report: Jan 17, 2017 at 3:30 pm


Visibility: 10 mi

Pressure: 30.30 "Hg

Humidity: 48%

Dew Point: 21 °F

Location of PérigueuxLocation

Past Weather in Périgueux — Graph

°F

Périgueux Temperature Yesterday

Maximum temperature yesterday: 48 °F (at 9:00 am)
Minimum temperature yesterday: 28 °F (at 10:30 pm)
Average temperature yesterday: 43 °F

High & Low Weather Summary for the Past Weeks

 TemperatureHumidityPressure
High54 °F (Jan 12, 6:00 pm)100% (Jan 2, 7:30 pm)30.57 "Hg (Jan 2, 7:30 pm)
Low16 °F (Jan 7, 6:30 am)31% (Jan 7, 3:30 pm)29.86 "Hg (Jan 12, 7:30 pm)
Average37 °F87%30.30 "Hg
* Reported Jan 2 3:00 pm — Jan 17 3:00 pm, Périgueux, Weather by CustomWeather, © 2017

Note: Actual official high and low records may vary slightly from our data, if they occured in-between our weather recording intervals... More about our weather records

Advertising

Périgueux Weather History for the Previous 24 Hours

Scroll right to see more
 ConditionsComfort  
Time TempWeatherWind HumidityBarometerVisibility
3:00 pm
Tue, Jan 17
39 °FSunny.14 mph45%30.30 "Hg10 mi
2:30 pm39 °FPassing clouds.17 mph45%30.30 "HgN/A
2:00 pm37 °FPassing clouds.16 mph48%30.30 "HgN/A
1:30 pm37 °FSunny.17 mph52%30.33 "Hg10 mi
1:00 pm37 °FPassing clouds.14 mph52%30.33 "HgN/A
12:30 pm36 °FSunny.13 mph60%30.33 "Hg10 mi
12:00 pm36 °FPassing clouds.10 mph65%30.36 "HgN/A
11:30 am34 °FPassing clouds.9 mph65%30.36 "HgN/A
11:00 am32 °FPassing clouds.7 mph75%30.36 "HgN/A
10:30 am32 °FPassing clouds.7 mph75%30.36 "HgN/A
10:00 am30 °FPassing clouds.3 mph80%30.36 "HgN/A
9:30 am28 °FPassing clouds.3 mph80%30.36 "HgN/A
9:00 am27 °FSunny.5 mph86%30.33 "Hg10 mi
8:30 am25 °FClear.6 mph93%30.33 "Hg10 mi
8:00 am25 °FClear.5 mph86%30.33 "Hg10 mi
7:30 am25 °FClear.5 mph93%30.33 "Hg10 mi
7:00 am25 °FClear.6 mph93%30.33 "Hg10 mi
6:30 am25 °FClear.5 mph93%30.33 "Hg10 mi
6:00 am27 °FClear.7 mph93%30.33 "Hg10 mi
5:30 am27 °FClear.7 mph93%30.33 "Hg10 mi
5:00 am27 °FClear.7 mph86%30.33 "Hg10 mi
4:30 am27 °FClear.7 mph86%30.33 "Hg10 mi
4:00 am27 °FClear.5 mph93%30.30 "Hg10 mi
3:30 am27 °FClear.5 mph93%30.33 "Hg10 mi
3:00 am28 °FClear.3 mph86%30.33 "Hg10 mi
2:30 am28 °FPassing clouds.3 mph86%30.30 "HgN/A
2:00 am28 °FClear.2 mph86%30.30 "Hg10 mi
1:30 am27 °FClear.2 mph93%30.30 "Hg10 mi
1:00 am27 °FClear.2 mph93%30.30 "Hg10 mi
12:30 am27 °FClear.3 mph93%30.30 "Hg10 mi
12:00 am30 °FClear.No wind86%30.30 "Hg10 mi
11:30 pm
Mon, Jan 16
30 °FClear.1 mph86%30.30 "Hg10 mi
11:00 pm30 °FClear.No wind86%30.30 "Hg10 mi
10:30 pm28 °FClear.1 mph100%30.27 "Hg10 mi
10:00 pm30 °FClear.No wind93%30.27 "Hg10 mi
9:30 pm32 °FClear.5 mph87%30.27 "Hg10 mi
9:00 pm34 °FClear.3 mph87%30.27 "Hg10 mi
8:30 pm34 °FClear.5 mph87%30.27 "Hg10 mi
8:00 pm34 °FClear.3 mph87%30.27 "Hg10 mi
7:30 pm36 °FClear.6 mph81%30.24 "Hg10 mi
7:00 pm36 °FClear.6 mph81%30.24 "Hg10 mi
6:30 pm37 °FClear.6 mph75%30.24 "Hg10 mi
6:00 pm39 °FClear.8 mph70%30.24 "Hg10 mi
5:30 pm41 °FSunny.8 mph66%30.24 "Hg10 mi
5:00 pm43 °FPartly sunny.13 mph71%30.24 "HgN/A
4:30 pm45 °FScattered clouds.12 mph61%30.21 "HgN/A
4:00 pm45 °FPartly sunny.14 mph66%30.21 "HgN/A
Weather by CustomWeather, © 2017

See weather overviewHow to use our weather pages